Weather History for KAKR - September, 2013

Change the Weather History Date:

Tuesday, September 17, 2013

  Actual Average (KCAK) Record (KCAK)
Temperature  
Mean Temperature 55 °F 63 °F  
Max Temperature 70 °F 73 °F 90 °F (1955)
Min Temperature 41 °F 53 °F 35 °F (1959)
Degree Days  
Heating Degree Days 10 4  
Month to date heating degree days 37  
Since 1 July heating degree days 57  
Cooling Degree Days 0 2  
Month to date cooling degree days 50  
Year to date cooling degree days 632  
Growing Degree Days 5 (Base 50)    
Moisture  
Dew Point 45 °F    
Average Humidity 74    
Maximum Humidity 97    
Minimum Humidity 42    
Precipitation  
Precipitation 0.01 in 0.12 in - ()
Month to date precipitation 2.02  
Year to date precipitation 29.22  
Snow  
Snow 0.00 in 0.00 in - ()
Month to date snowfall 0.0  
Since 1 July snowfall 0.0  
Since 1 September snowfall 0.0  
Snow Depth -    
Sea Level Pressure  
Sea Level Pressure 30.35 in    
Wind  
Wind Speed 3 mph (East)    
Max Wind Speed 7 mph    
Max Gust Speed -    
Visibility 9 miles    
Events      
T = Trace of Precipitation, MM = Missing Value Source: NWS Daily Summary

Daily Weather History Graph

Daily Weather History Graph

Search for Another Location

Airport or City:

Trip Planner

Search our weather history database for the weather conditions in past years. The results will help you decide how hot, cold, wet, or windy it might be!

Date:

Astronomy

Sep. 17, 2013 Rise Set
Actual Time 7:08 AM EDT 7:31 PM EDT
Civil Twilight 6:41 AM EDT 7:58 PM EDT
Nautical Twilight 6:08 AM EDT 8:30 PM EDT
Astronomical Twilight 5:35 AM EDT 9:04 PM EDT
Moon 6:17 PM EDT (9/17) 5:00 AM EDT (9/17)
Length of Visible Light 13h 17m
Length of Day
12h 22m
Waxing Gibbous, 96% of the Moon is Illuminated
Sep 17
Waxing Gibbous
Sep 19
Full
Sep 26
Last Quarter
Oct 4
New
Oct 11
First Quarter

Hourly Weather History & Observations

Time (EDT) Temp. Windchill Dew Point Humidity Pressure Visibility Wind Dir Wind Speed Gust Speed Precip Events Conditions
12:54 AM 50.0 °F - 48.0 °F 93% 30.35 in 10.0 mi ENE 3.5 mph - N/A   Clear
1:54 AM 48.9 °F - 48.0 °F 97% 30.36 in 10.0 mi East 3.5 mph - N/A   Clear
2:54 AM 48.9 °F - 46.9 °F 93% 30.37 in 10.0 mi East 5.8 mph - N/A   Clear
3:54 AM 46.9 °F - 45.0 °F 93% 30.37 in 10.0 mi ENE 3.5 mph - N/A   Clear
4:54 AM 46.0 °F - 44.1 °F 93% 30.38 in 10.0 mi Calm Calm - 0.01 in   Clear
5:54 AM 44.1 °F - 43.0 °F 96% 30.39 in 9.0 mi Calm Calm - N/A   Clear
6:16 AM 41.0 °F - 39.2 °F 93% 30.39 in 1.8 mi Calm Calm - N/A   Clear
6:26 AM 42.8 °F - 41.0 °F 93% 30.39 in 0.8 mi Calm Calm - N/A   Clear
6:37 AM 42.8 °F - 41.0 °F 93% 30.39 in 3.0 mi Calm Calm - N/A   Clear
6:54 AM 43.0 °F - 42.1 °F 97% 30.40 in 6.0 mi Calm Calm - N/A   Clear
7:40 AM 42.8 °F - 41.0 °F 93% 30.40 in 2.5 mi Calm Calm - N/A   Clear
7:47 AM 42.8 °F - 41.0 °F 93% 30.40 in 7.0 mi Calm Calm - N/A   Clear
7:54 AM 44.1 °F 41.5 °F 42.1 °F 93% 30.42 in 8.0 mi ENE 4.6 mph - N/A   Clear
8:54 AM 48.0 °F - 45.0 °F 89% 30.41 in 10.0 mi East 5.8 mph - N/A   Clear
9:54 AM 52.0 °F - 46.0 °F 80% 30.41 in 10.0 mi East 5.8 mph - N/A   Clear
10:54 AM 55.0 °F - 46.9 °F 74% 30.40 in 10.0 mi ESE 4.6 mph - N/A   Clear
11:54 AM 59.0 °F - 46.9 °F 64% 30.38 in 10.0 mi ESE 6.9 mph - N/A   Clear
12:54 PM 63.0 °F - 48.0 °F 58% 30.36 in 10.0 mi Variable 4.6 mph - N/A   Clear
1:54 PM 64.9 °F - 46.0 °F 50% 30.34 in 10.0 mi Variable 4.6 mph - N/A   Clear
2:54 PM 66.9 °F - 46.9 °F 49% 30.32 in 10.0 mi Variable 4.6 mph - N/A   Clear
3:54 PM 69.1 °F - 46.0 °F 44% 30.30 in 10.0 mi Variable 4.6 mph - N/A   Clear
4:54 PM 69.1 °F - 45.0 °F 42% 30.28 in 10.0 mi Variable 4.6 mph - N/A   Clear
5:54 PM 69.1 °F - 46.0 °F 44% 30.27 in 10.0 mi ESE 5.8 mph - N/A   Clear
6:54 PM 66.9 °F - 46.0 °F 47% 30.26 in 10.0 mi East 4.6 mph - N/A   Clear
7:54 PM 62.1 °F - 46.9 °F 58% 30.26 in 10.0 mi ENE 3.5 mph - N/A   Clear
8:54 PM 59.0 °F - 45.0 °F 60% 30.26 in 10.0 mi East 3.5 mph - N/A   Clear
9:54 PM 59.0 °F - 43.0 °F 55% 30.26 in 10.0 mi Calm Calm - N/A   Clear
10:54 PM 57.0 °F - 43.0 °F 59% 30.26 in 10.0 mi Calm Calm - N/A   Clear
11:54 PM 55.0 °F - 43.0 °F 64% 30.25 in 10.0 mi Calm Calm - N/A   Clear